Location: *
(35.2348°S, 91.3916°E)
Time: 18:11:04
(UTC+00:00)

FengYun 1-2 T - Pass Details

Date: 23 October 2019
Orbit: 846 x 882 km, 98.7° (Epoch: 20 November)

Event Time Altitude Azimuth Distance (km) Brightness Sun altitude
Rises 12:55:52 0° 166° (SSE) 3,506 7.5 -8.6°
Reaches altitude 10° 12:58:17 10° 164° (SSE) 2,563 6.8 -9.1°
Maximum altitude 13:04:01 78° 77° (ENE) 912 4.3 -10.2°
Drops below altitude 10° 13:09:41 10° 351° (N) 2,538 6.6 -11.2°
Sets 13:12:04 0° 349° (N) 3,469 7.3 -11.7°
